ATLAS 5 CENTAUR DEB, 44980

Orbit data source: Space-Track

ATLAS 5 CENTAUR DEB, 44980 is space debris in HEO originally from a launch on Wed, 17 Oct 2018 UTC launched from the Air Force Eastern Test Range (AFETR). Debris objects in space refer to the collection of defunct objects orbiting the Earth. Examples of debris include non-operational satellites, rocket bodies, and fragments generated from explosions, collisions, or faulty payload assembly.

Loading next visibility...
Identifier
44980, 2018-079BP
Orbit
HEO
Country
Flag of USUS
Related business
Flag of USUnited Launch Alliance/Lockheed Martin (US)
Manufacturer
ULA Decatur
Mission
Spacecraft
Bus & Motor
Unknown
Mass
Unknown
Launch date (UTC)
2018-10-17 (7 years ago)
Launch vehicle
Unknown
Launch site
Air Force Eastern Test Range (AFETR)
Object type
Payload
Rocket body
Debris
Shape & HBR
Unknown shape, 1.1 m
Radar Cross Section
RCS unknown

Expand to show TLE details & history
Last TLE update: 2 months ago

TLE from 2 months ago
0 ATLAS 5 CENTAUR DEB
1 44980U 18079BP  25288.72330780 -.00000137  00000-0  00000-0 0  9997
2 44980  13.0910 335.8592 4487347  86.3596 322.0840  2.15746322 46573
Epoch: 2025-10-15T17:21Z
TLE epoch observation values (Epoch: 2025-10-15T17:21:33.793Z)
Latitude
-0.00003°
Longitude
50.95084°
Altitude
13,253.148 km
Speed
4.985 km/s
True Right ascension
22h 23m 20s
True Declination
0° 00' 00"
Sunlit
Object was in daylight at epoch
Visualization orbit readout
Latitude
Unknown
Longitude
Unknown
Altitude
Unknown
Speed
Unknown
Apparent Right ascension
Unknown
Apparent Declination
Unknown
Sunlit
N/A
Visualization observer readout
Local Sidereal Time
04:47:17
Azimuth
Unknown
Elevation
Unknown
Doppler factor
Unknown
Orbital elements
Apogee altitude
30,276.93 km
Perigee altitude
7,569.666 km
Semi-major axis
25,301.435 km
Eccentricity
0.44873
Inclination
13.091°
RAAN
335.8592°
Arg. of periapsis
86.3596°
True anomaly
273.51986°
Mean anomaly
322.084°
Eccentric anomaly
299.76555°
Mean motion
0.53929 °/min
Orbital period
667.54 mins
BSTAR
0
Loading maneuver chart data...
Computing Atmospheric mass density...

Documentation

Showing up to 5 results
|